Cloud_Cover
0 0 0 1 16 10 7 7 100 100 100 87 30 0 92 98 56 6 16 98 59 10 0 0 0 5 56 17 100 17 5 5 100 100 100 100 100 100 99 100 100 99 100
0 0 0 20 10 9 11 15 48 62 100 4 1 46 30 0 1 72 93 17 0 0 0 1 5 22 62 100 95 6 5 99 100 100 100 100 100 100 100 100 100 100 100
0 0 26 41 16 0 28 17 52 4 0 12 43 12 19 36 100 100 38 0 0 0 0 5 5 32 53 100 84 6 60 100 100 100 100 100 100 100 100 100 100 100 100
0 4 38 47 9 20 94 94 1 43 64 90 39 64 100 100 98 3 0 0 0 2 30 44 54 100 64 100 98 35 5 100 100 100 100 100 100 100 100 100 100 100 100
97 10 2 4 100 100 99 99 40 82 84 100 100 100 24 0 1 0 0 0 8 5 27 53 88 99 89 79 54 10 13 76 100 100 100 100 100 100 100 100 100 100 100
93 35 76 100 100 100 100 100 100 100 89 98 0 0 0 8 100 100 50 1 4 5 8 33 26 89 95 82 92 62 25 78 99 100 100 100 100 100 99 100 100 100 100
100 100 100 100 100 100 100 100 69 11 0 0 6 98 100 94 100 100 100 0 6 6 19 54 89 100 100 86 100 100 100 92 98 100 100 100 100 100 100 100 86 97 100
100 100 100 100 100 100 100 10 0 0 0 7 100 88 75 100 100 100 71 33 62 30 42 78 100 100 76 64 92 100 100 100 100 67 81 66 20 99 94 64 76 100 100
100 100 100 100 92 49 1 0 0 54 100 100 35 27 100 100 100 100 30 35 74 57 50 95 92 100 100 100 100 97 90 100 100 99 52 100 100 98 100 84 100 100 100
100 19 51 100 18 68 80 86 100 90 26 15 29 34 100 100 100 100 97 20 66 84 84 69 88 80 100 100 51 18 100 96 98 100 100 100 100 100 100 100 63 83 99
99 12 31 96 12 72 86 100 54 61 55 36 47 52 100 88 100 100 74 79 95 95 39 53 100 98 97 83 98 8 92 96 100 100 100 100 100 100 100 100 100 89 100
47 78 14 100 100 100 100 74 13 28 41 96 100 100 100 100 100 100 99 98 96 76 100 100 100 100 100 100 100 100 100 100 100 100 100 100 100 100 100 100 100 100 100
72 22 35 76 100 100 82 0 31 18 51 100 100 100 100 100 100 100 100 100 92 100 100 100 100 100 100 100 100 100 100 100 100 100 100 100 100 100 100 100 100 100 100
100 82 10 100 100 56 8 3 5 24 42 100 100 100 100 100 100 100 100 100 100 100 100 100 100 100 100 100 100 100 100 100 100 100 100 100 100 100 100 100 100 100 100
74 8 14 3 44 100 100 100 15 50 23 43 100 100 96 100 84 100 100 100 100 100 100 100 100 100 100 100 100 100 100 100 100 100 100 100 100 100 99 100 99 100 100
0 100 95 14 97 97 100 100 100 92 100 100 95 100 99 94 100 100 100 100 100 100 100 100 100 100 100 100 100 97 100 100 100 100 100 100 100 41 70 99 97 100 100
0 29 15 37 49 36 84 86 100 100 100 100 100 100 100 100 100 100 100 100 100 100 100 100 100 97 87 100 100 93 100 88 100 96 100 99 97 100 100 100 96 87 66
2 7 2 5 7 11 42 35 54 61 100 100 100 100 100 100 98 100 100 99 100 100 100 100 100 100 89 98 100 100 100 96 99 100 95 100 100 100 100 84 19 5 6
2 5 2 3 0 2 4 22 53 98 100 100 100 100 100 100 100 100 100 88 86 81 48 56 60 77 98 100 100 100 83 69 54 66 92 100 100 97 54 6 18 56 70
5 6 8 5 2 0 0 15 96 100 100 100 100 100 100 89 94 100 99 100 100 100 100 98 100 100 100 100 100 97 60 90 87 82 89 100 100 58 84 76 74 59 28
5 5 11 18 5 5 5 11 89 100 100 100 100 100 100 100 100 100 100 100 100 100 100 100 100 100 73 94 10 100 100 100 99 100 100 100 100 100 100 96 59 57 71
97 52 5 9 43 6 4 4 56 100 100 100 100 100 100 95 100 93 76 96 100 100 100 100 100 100 100 100 100 100 100 99 99 100 100 100 100 100 100 100 100 100 99
100 89 11 63 85 75 6 3 7 30 100 100 100 100 54 85 100 78 90 63 88 100 100 100 100 100 97 94 88 78 99 100 100 100 100 100 100 100 100 97 100 100 100
100 100 100 39 11 23 21 52 30 24 42 100 100 100 98 61 64 98 100 66 5 30 5 13 100 64 79 69 99 98 85 82 86 84 100 100 66 100 100 100 100 100 99
100 100 56 57 12 1 5 5 39 74 100 100 100 97 86 54 100 100 99 93 94 42 13 36 18 94 75 10 67 100 100 39 24 71 49 84 53 38 73 71 6 20 96
88 89 64 78 65 85 92 83 52 90 100 79 50 80 39 19 59 50 65 76 56 44 100 98 38 33 39 53 4 12 71 59 52 45 93 47 54 88 65 87 60 69 100